Kars, Turkey

5:25 PM +03 on February 22, 2017 (GMT +0300)
Kars

Weather History for LTCF - March, 2013

Change the Weather History Date:

Saturday, March 16, 2013

  Actual Average Record
Temperature  
Mean Temperature 39 °F -  
Max Temperature 50 °F 45 °F - ()
Min Temperature 28 °F 25 °F - ()
Degree Days  
Heating Degree Days 26    
Moisture  
Dew Point 32 °F    
Average Humidity 75    
Maximum Humidity 100    
Minimum Humidity 48    
Precipitation  
Precipitation 0.00 in 0.05 in - ()
Sea Level Pressure  
Sea Level Pressure 30.04 in    
Wind  
Wind Speed 4 mph ()    
Max Wind Speed 15 mph    
Max Gust Speed -    
Visibility 5.9 miles    
Events      
T = Trace of Precipitation, MM = Missing Value Source: Averaged Metar Reports

Daily Weather History Graph

Daily Weather History Graph

Search for Another Location

Airport or City:

Trip Planner

Search our weather history database for the weather conditions in past years. The results will help you decide how hot, cold, wet, or windy it might be!

Date:

Astronomy

Mar. 16, 2013 Rise Set
Actual Time 5:17 AM EET 5:15 PM EET
Civil Twilight 4:50 AM EET 5:42 PM EET
Nautical Twilight 4:18 AM EET 6:14 PM EET
Astronomical Twilight 3:46 AM EET 6:46 PM EET
Moon 7:31 AM EET (3/16) 10:05 PM EET (3/16)
Length of Visible Light 12h 52m
Length of Day
11h 57m
Waxing Crescent, 21% of the Moon is Illuminated
Mar 16
Waxing Crescent
Mar 19
First Quarter
Mar 27
Full
Apr 3
Last Quarter
Apr 10
New

Hourly Weather History & Observations

Time (EET) Temp. Windchill Dew Point Humidity Pressure Visibility Wind Dir Wind Speed Gust Speed Precip Events Conditions
12:50 AM 30.2 °F - 30.2 °F 100% 30.18 in 6.2 mi Variable 1.2 mph - N/A   Mostly Cloudy
1:50 AM 30.2 °F 24.3 °F 30.2 °F 100% 30.15 in 6.2 mi WNW 5.8 mph - N/A   Mostly Cloudy
2:50 AM 28.4 °F 24.6 °F 28.4 °F 100% 30.12 in 2.5 mi SE 3.5 mph - N/A   Mostly Cloudy
3:50 AM 28.4 °F 23.3 °F 28.4 °F 100% 30.12 in 2.5 mi East 4.6 mph - N/A   Mostly Cloudy
4:50 AM 32.0 °F 27.5 °F 32.0 °F 100% 30.12 in 6.2 mi WNW 4.6 mph - N/A   Mostly Cloudy
5:50 AM 30.2 °F - 30.2 °F 100% 30.12 in 6.2 mi Variable 2.3 mph - N/A   Mostly Cloudy
6:50 AM 33.8 °F 30.8 °F 32.0 °F 93% 30.12 in 6.2 mi SE 3.5 mph - N/A   Mostly Cloudy
7:50 AM 35.6 °F 30.7 °F 32.0 °F 87% 30.12 in 6.2 mi NNE 5.8 mph - N/A   Mostly Cloudy
8:00 AM 35 °F - 32 °F 83%  in 6 mi NNE 5.8 mph - -   Partly Cloudy
8:50 AM 39.2 °F - 32.0 °F 75% 30.09 in 6.2 mi Variable 1.2 mph - N/A   Mostly Cloudy
9:50 AM 42.8 °F 41.1 °F 32.0 °F 66% 30.06 in 6.2 mi NE 3.5 mph - N/A   Mostly Cloudy
10:50 AM 41.0 °F 35.2 °F 32.0 °F 70% 30.04 in 6.2 mi NNE 9.2 mph - N/A   Mostly Cloudy
11:50 AM 44.6 °F 43.1 °F 32.0 °F 61% 30.04 in 6.2 mi ENE 3.5 mph - N/A   Mostly Cloudy
12:50 PM 41.0 °F 36.4 °F 32.0 °F 70% 30.01 in 6.2 mi East 6.9 mph - N/A   Mostly Cloudy
2:00 PM 45 °F - 32 °F 48%  in 6 mi East 4.6 mph - -   Partly Cloudy
2:50 PM 44.6 °F 40.7 °F 33.8 °F 66% 29.98 in 6.2 mi SW 6.9 mph - N/A   Mostly Cloudy
3:50 PM 44.6 °F 41.4 °F 32.0 °F 61% 29.98 in 6.2 mi SSW 5.8 mph - N/A   Mostly Cloudy
4:50 PM 44.6 °F 41.4 °F 33.8 °F 66% 29.98 in 6.2 mi SW 5.8 mph - N/A   Mostly Cloudy
5:50 PM 42.8 °F 35.4 °F 32.0 °F 66% 29.98 in 6.2 mi SSW 15.0 mph - N/A   Mostly Cloudy
6:50 PM 39.2 °F 31.2 °F 32.0 °F 75% 29.98 in 6.2 mi SW 13.8 mph - N/A   Mostly Cloudy
7:50 PM 46.4 °F - 33.8 °F 62% 29.98 in 6.2 mi Variable 2.3 mph - N/A   Mostly Cloudy
8:00 PM 46 °F - 33 °F 50%  in 6 mi NNE 2.3 mph - -   Mostly Cloudy
8:50 PM 48.2 °F - 33.8 °F 58% 29.95 in 6.2 mi Variable 4.6 mph - N/A   Mostly Cloudy
9:50 PM 46.4 °F 43.5 °F 33.8 °F 62% 29.92 in 6.2 mi Variable 5.8 mph - N/A   Mostly Cloudy
10:50 PM 42.8 °F 37.5 °F 33.8 °F 70% 29.92 in 6.2 mi WSW 9.2 mph - N/A   Mostly Cloudy
11:50 PM 46.4 °F 42.9 °F 33.8 °F 62% 29.89 in 6.2 mi SSE 6.9 mph - N/A   Mostly Cloudy